Location: *
(48.8667°N, 2.3331°E)
Time: 21:15:04
(UTC+00:00)

USA 234 - Pass Details

Date: 09 April 2020
Orbit: 1102 x 1106 km, 123.0° (Epoch: 14 May)

Event Time Altitude Azimuth Distance (km) Brightness Sun altitude
Rises 19:52:02 0° 60° (ENE) 3,926 5.9 -12.8°
Reaches altitude 10° 19:55:04 10° 73° (ENE) 2,965 5.1 -13.2°
Maximum altitude 20:00:16 25° 126° (SE) 2,071 4.1 -14.0°
Drops below altitude 10° 20:05:26 10° 179° (S) 2,954 5.2 -14.7°
Sets 20:08:26 0° 192° (SSW) 3,909 6.0 -15.1°
